Wind_Speed
5 5 3 5 6 5 6 5 7 7 6 7 6 9 9 7 8 7 5 6 6 9 12 9 8 8 6 5 5 7 8 8 8 7 8 7 7 9 9 8 9 8 8 9 9 9 9 9 10 11 12 13 13 14 15 16 17 17 18 20 21 22 23 24 23 21 21 22 23 23 23 23 24 24 24 23 23 22 22 23 22 20 19 20 20 20
4 6 5 6 6 3 3 3 5 8 7 5 7 12 12 10 11 9 6 7 7 10 12 9 7 8 8 7 7 8 9 9 8 8 8 7 9 10 9 8 10 11 11 11 12 12 12 12 13 13 14 15 15 16 16 17 19 20 21 22 24 26 26 23 20 18 18 19 20 21 22 22 23 23 23 23 23 23 23 24 23 23 21 20 21 21
3 5 2 3 4 3 3 1 3 7 10 9 9 15 16 15 15 10 8 10 9 9 11 9 7 6 8 9 9 10 11 9 9 9 8 9 10 8 8 9 10 13 15 14 14 14 14 15 15 15 16 16 17 17 18 19 20 22 23 25 26 26 24 20 19 18 18 18 19 20 21 21 22 22 23 23 23 24 24 24 23 23 22 22 22 23
3 4 1 1 1 2 2 3 3 5 11 14 15 18 15 13 13 10 9 12 11 10 9 10 10 9 8 10 10 11 11 10 10 9 9 10 9 8 10 9 8 13 16 15 15 15 15 15 15 16 16 17 18 18 20 21 22 23 24 25 24 23 22 21 21 21 20 21 21 21 21 22 23 23 23 24 24 25 25 24 23 22 22 22 22 24
4 3 1 1 1 1 2 3 4 5 8 11 13 12 10 9 11 10 10 11 12 12 9 9 10 10 11 11 12 12 12 12 11 10 10 9 10 13 15 12 11 14 17 16 16 15 15 15 15 16 17 18 19 20 21 23 23 23 22 22 21 21 22 23 23 23 23 23 23 23 23 24 24 25 25 25 26 26 26 25 24 22 22 22 21 22
3 2 0 1 1 2 2 3 4 6 4 4 6 5 5 9 11 9 11 11 11 12 11 11 9 9 12 13 13 13 13 13 13 13 12 10 12 17 20 18 18 19 20 20 19 17 15 16 16 16 17 18 20 21 22 22 22 21 20 20 21 22 23 24 25 26 26 26 26 25 25 25 25 25 26 26 27 26 26 25 24 23 21 21 20 19
1 0 2 3 2 1 4 4 4 5 5 3 4 4 3 8 9 7 10 11 10 10 10 14 10 5 12 15 13 14 14 14 14 14 14 12 14 17 19 21 22 22 23 23 21 19 18 18 17 17 18 19 20 21 20 20 20 21 21 22 23 23 25 25 26 27 27 28 28 27 27 26 26 25 25 25 26 26 25 24 23 23 22 21 21 20
1 3 2 3 3 3 4 3 3 4 3 4 2 4 4 6 7 7 10 10 10 9 8 14 13 7 13 17 15 16 16 16 16 16 16 15 15 15 15 16 19 20 23 25 22 19 19 18 19 19 19 20 20 20 19 20 21 22 23 23 24 25 26 27 28 28 29 29 29 29 28 27 25 24 23 22 23 23 23 23 22 22 22 21 20 20
4 4 2 3 3 4 4 1 1 3 3 3 4 5 5 5 5 7 9 10 9 8 7 10 11 9 12 13 15 18 18 17 18 18 17 17 16 15 13 12 15 16 21 26 23 19 19 19 20 20 21 21 20 20 20 22 23 23 23 24 24 25 27 28 29 29 29 29 29 28 27 25 24 21 19 17 17 19 21 21 20 20 21 21 21 20
4 3 3 3 2 3 4 2 3 3 4 2 2 5 6 6 7 8 8 9 8 8 8 6 7 8 9 7 12 18 19 18 19 20 19 18 17 16 14 13 15 16 20 27 25 19 19 20 20 21 21 20 19 20 22 23 24 23 23 24 25 26 27 28 29 28 27 27 26 26 25 23 20 17 13 11 11 13 16 19 19 19 20 20 20 18
2 4 4 5 4 2 2 3 4 5 5 4 2 5 6 6 8 9 10 9 7 6 8 10 13 13 6 5 11 15 15 17 21 24 23 20 17 17 18 16 16 18 18 23 25 19 16 18 20 21 20 19 20 21 23 24 24 23 23 24 26 27 27 26 26 25 24 25 24 24 22 18 14 10 8 7 8 10 12 13 15 17 18 19 18 17
3 4 2 5 6 3 2 3 3 5 5 5 5 5 4 4 7 8 10 9 6 4 4 8 12 13 8 7 12 12 12 15 19 22 21 20 19 19 20 18 16 15 12 17 22 15 13 17 18 19 19 19 20 22 24 25 23 23 24 25 27 26 24 23 23 23 23 24 23 21 18 12 7 5 5 5 6 9 10 10 10 12 14 16 16 16
5 5 2 3 6 5 4 4 3 4 6 6 6 6 4 1 4 5 5 4 5 3 2 5 7 9 10 10 12 11 11 12 14 16 16 19 21 21 20 19 17 11 8 15 19 13 14 18 18 18 20 20 21 23 25 25 24 24 25 26 25 22 20 20 22 24 23 22 19 16 13 6 2 2 3 5 6 8 9 9 9 10 12 14 15 15
5 5 4 4 4 5 6 5 4 3 4 6 6 6 4 1 2 4 3 2 5 4 3 6 7 8 10 9 8 8 7 7 10 13 13 15 18 19 19 20 17 12 14 19 19 16 16 18 17 19 20 20 22 24 25 24 24 25 25 23 20 18 18 20 22 23 21 17 15 14 9 3 0 2 3 4 6 7 8 9 9 9 11 13 14 15
5 5 5 5 3 4 6 6 6 5 5 6 7 6 4 3 3 5 4 3 5 6 6 4 2 6 8 6 5 5 6 7 8 8 8 10 12 15 19 19 14 15 21 21 20 19 17 17 18 19 19 20 23 23 23 23 24 25 22 18 17 17 18 21 22 20 17 14 13 12 8 3 1 2 3 4 5 6 8 8 8 9 10 13 14 15
6 5 4 5 3 3 5 5 6 7 5 4 5 6 5 5 6 6 6 6 8 8 7 6 7 8 7 6 6 6 7 9 8 4 5 9 11 14 19 18 14 20 25 22 21 20 17 16 18 19 20 21 22 22 22 23 23 22 18 15 15 17 19 21 21 17 14 13 12 10 7 4 2 3 3 4 5 6 7 7 8 8 9 12 13 14
6 4 2 5 5 5 7 6 5 6 4 4 4 6 7 4 5 7 7 7 8 7 7 9 9 6 6 6 7 7 6 6 7 5 6 10 11 15 19 17 16 23 24 20 20 20 16 16 18 19 20 22 21 20 21 22 21 17 14 13 15 16 18 20 18 15 14 13 12 9 6 3 2 3 3 4 5 7 7 7 7 7 8 10 11 12
6 6 4 6 8 7 7 7 7 7 7 6 4 3 5 4 5 6 6 6 6 5 6 8 8 6 5 4 4 5 5 5 6 6 7 9 10 15 18 16 17 22 21 14 15 18 16 15 18 19 20 22 21 18 20 21 18 13 12 13 14 15 17 19 17 14 13 13 12 11 7 4 2 3 3 4 5 6 7 7 7 7 7 8 9 11
5 6 6 6 8 7 5 7 9 10 11 10 8 6 6 5 5 4 4 5 4 5 5 7 10 6 3 4 1 4 6 7 7 8 9 9 9 13 15 14 16 18 18 11 13 17 17 15 17 19 19 20 20 19 20 20 16 13 12 13 14 15 16 18 16 13 12 12 12 12 9 6 3 3 4 5 5 6 6 7 8 9 8 8 9 10
5 6 5 4 6 6 5 7 9 8 9 9 10 10 9 9 8 6 6 6 4 5 5 6 8 5 7 5 2 3 2 5 7 10 10 10 11 14 14 14 14 15 15 14 14 15 17 16 15 18 18 18 19 19 20 20 16 13 13 13 14 14 15 16 16 14 12 11 11 11 10 8 6 4 4 5 5 5 6 7 9 10 10 9 9 10
4 5 6 3 4 6 7 8 7 6 5 6 9 9 8 8 8 9 10 9 8 7 5 5 6 5 5 1 2 3 2 2 3 8 10 11 13 15 16 16 15 14 16 18 16 15 19 18 15 17 18 17 18 19 20 20 17 15 14 14 13 14 14 14 15 14 12 11 10 10 9 8 7 6 4 3 4 4 5 7 7 9 10 10 9 10
3 3 7 8 6 7 8 7 7 7 5 7 8 8 7 5 6 8 8 7 9 9 7 6 6 5 4 3 6 5 3 1 2 5 8 10 12 14 16 17 15 15 19 21 19 17 20 19 16 17 18 18 18 18 18 18 17 15 14 14 13 13 13 13 14 14 13 11 10 9 9 8 7 6 5 3 2 2 3 5 6 7 8 9 9 9
8 7 9 12 11 10 10 9 9 9 9 9 10 10 9 7 7 8 7 7 9 9 10 10 7 3 2 4 4 2 1 3 5 6 7 9 11 14 17 18 16 16 20 22 22 20 20 19 17 17 19 19 18 19 18 18 18 16 14 14 13 12 12 12 12 12 12 12 10 9 9 8 7 7 6 5 4 3 3 3 4 6 7 8 8 9
9 9 9 12 13 12 12 11 9 8 7 8 10 12 12 11 10 11 10 10 10 10 11 9 7 2 4 3 4 4 4 4 6 7 7 8 11 13 17 18 16 17 22 23 22 21 20 18 17 15 15 15 16 20 21 19 18 16 14 14 13 12 11 11 11 11 11 11 10 9 8 8 7 7 7 7 7 6 4 3 4 5 6 7 8 9
6 5 8 9 9 9 9 8 9 7 4 6 8 9 11 12 11 11 11 11 11 12 11 10 9 4 3 3 5 3 3 3 4 5 6 7 9 11 14 16 16 19 23 23 23 22 20 17 16 14 11 11 15 20 21 21 20 17 14 13 13 12 11 10 11 11 10 10 10 9 7 7 7 7 7 7 7 7 7 6 5 5 5 7 8 8
7 6 8 8 7 6 4 2 4 6 7 9 9 8 9 10 10 10 10 11 12 12 12 12 11 6 3 4 4 3 3 3 2 4 4 5 8 11 13 14 16 20 22 22 21 20 17 15 12 11 12 13 16 18 19 20 21 19 16 14 13 12 12 10 10 10 10 10 9 9 8 6 6 7 7 7 7 8 8 8 7 7 7 9 9 9
12 10 9 10 11 13 13 12 9 9 11 12 12 11 11 10 10 10 11 12 12 12 13 14 13 11 9 7 5 4 4 3 4 6 6 5 7 11 14 17 18 17 18 18 17 14 13 12 10 10 13 15 16 17 17 18 19 19 17 15 13 12 12 11 10 9 9 9 9 9 8 8 7 6 6 7 7 7 7 8 8 8 8 9 11 11
13 13 12 13 16 17 17 17 14 13 14 16 16 15 13 13 13 13 14 15 13 13 14 13 11 11 10 8 7 8 7 6 6 7 8 8 9 10 12 15 15 13 16 19 17 13 11 11 11 11 11 12 14 17 17 18 19 18 17 15 13 12 11 11 10 9 9 9 8 8 7 8 8 7 6 6 7 7 7 7 8 9 9 9 10 11
11 12 13 13 16 17 17 18 17 16 17 17 17 16 16 16 17 17 18 18 16 16 17 16 15 16 15 13 13 12 11 11 11 11 11 10 11 11 11 12 11 13 18 19 15 13 12 11 13 13 10 9 13 15 16 17 18 18 16 14 13 12 11 11 10 9 9 8 8 7 7 7 7 7 6 6 6 6 6 7 7 8 9 9 10 10
10 12 12 12 16 17 16 16 17 17 18 19 19 18 18 18 19 20 21 20 20 21 22 21 21 22 21 19 18 17 16 16 14 13 13 12 12 12 12 12 12 14 16 14 13 15 14 13 15 15 11 9 12 14 15 17 18 17 16 14 12 11 11 10 9 9 8 7 7 6 6 6 6 6 6 5 5 5 5 6 6 6 7 8 8 9
12 12 10 11 15 16 15 15 16 17 18 19 19 18 18 19 20 21 21 21 22 23 23 22 24 25 22 18 18 17 16 14 13 12 12 12 12 12 13 13 13 15 15 14 15 16 17 17 19 20 17 13 11 13 15 16 17 17 15 13 12 11 10 9 8 7 7 6 5 5 5 6 6 6 6 5 5 5 5 6 6 6 7 7 7 8
12 12 11 11 15 16 15 14 16 16 17 19 21 20 20 21 21 21 21 20 20 21 21 21 23 22 17 14 14 13 12 11 11 11 11 12 12 13 13 14 15 16 16 15 16 17 20 23 22 23 24 18 12 13 15 16 17 16 14 13 11 10 9 8 7 6 5 5 4 4 5 5 5 5 5 5 5 5 6 6 6 7 7 8 8 9
11 12 12 12 15 17 15 14 15 14 13 15 17 18 18 17 17 18 20 20 20 20 21 21 22 19 15 13 12 12 12 12 11 10 10 12 13 13 13 13 15 16 16 14 15 18 22 23 23 25 24 18 13 14 15 16 17 15 13 12 10 9 8 7 6 5 4 3 3 3 4 4 4 4 4 5 5 6 6 7 8 8 9 9 10 10
10 12 13 13 15 17 17 18 17 13 12 13 13 12 13 13 13 14 15 17 17 18 20 21 20 18 16 15 13 13 14 13 13 13 12 13 13 13 13 13 15 16 15 15 16 18 20 24 26 25 22 16 14 15 16 17 16 14 13 11 10 9 7 6 5 4 3 3 3 3 3 3 3 3 4 5 5 6 7 8 8 9 10 10 11 12
13 13 14 14 15 17 18 17 14 10 12 14 13 12 12 14 14 14 16 17 17 18 19 19 19 18 17 16 16 15 15 14 14 14 14 15 14 14 14 15 16 16 14 15 18 20 24 28 27 22 18 16 15 16 17 17 16 14 12 10 9 8 7 6 5 4 3 3 2 2 1 1 2 3 4 5 6 7 7 8 9 10 11 12 12 13
16 15 14 14 15 16 16 14 11 11 14 16 16 14 14 14 14 15 18 18 15 15 17 17 17 17 16 16 16 15 14 14 14 14 14 14 14 14 13 14 15 13 10 12 17 22 28 31 27 22 19 17 16 17 18 17 15 13 11 10 9 8 7 6 5 4 4 3 3 2 1 1 2 4 5 6 6 7 8 9 11 12 13 13 14 14
17 17 16 16 16 15 16 17 17 18 19 18 16 15 14 13 13 14 17 17 13 12 14 15 15 14 13 14 14 13 12 14 14 13 13 14 14 14 13 13 14 12 12 16 22 26 28 28 26 24 22 18 17 18 18 16 14 13 11 9 8 8 7 6 5 4 4 4 4 3 1 2 4 5 6 6 7 8 10 11 12 13 14 14 15 16
16 17 17 17 17 16 16 18 16 14 14 13 11 13 16 16 14 13 16 19 15 11 12 12 10 11 12 11 10 11 12 13 11 11 11 12 15 15 12 11 12 12 17 23 25 24 24 23 22 23 21 18 18 19 18 16 14 12 11 10 9 8 7 6 5 5 5 6 5 4 2 4 5 7 7 7 8 10 11 13 14 14 14 15 16 16
15 18 18 19 19 18 18 18 15 13 14 13 11 11 13 14 12 9 13 16 11 6 8 9 8 8 8 8 11 13 12 10 9 10 10 12 15 16 11 9 11 13 17 22 21 17 17 19 20 20 19 18 19 19 17 15 14 12 11 10 10 9 7 6 6 5 6 7 6 5 5 6 7 8 9 9 10 12 13 14 14 14 15 16 17 16
15 17 19 21 22 21 21 21 19 19 20 17 13 10 9 11 10 7 8 7 1 4 7 6 5 6 7 9 11 11 10 8 8 11 13 13 15 16 12 11 15 15 17 21 19 14 13 16 18 18 18 19 18 17 15 14 14 13 12 11 11 9 8 7 6 6 7 7 7 7 8 9 9 10 10 11 12 13 14 14 14 15 16 16 16 16
15 16 18 21 23 23 23 23 23 24 23 18 15 12 10 11 11 9 7 4 2 6 10 9 6 6 8 9 7 6 8 10 10 12 16 15 14 13 12 13 15 15 16 19 17 13 12 15 17 17 18 18 17 15 14 14 14 13 12 12 12 10 8 8 8 8 8 9 9 9 10 11 11 11 11 12 13 14 15 14 14 15 15 16 15 16
16 15 16 20 22 22 23 23 23 24 22 17 15 14 13 15 15 11 9 8 6 9 12 12 10 7 7 7 7 7 9 10 11 13 14 12 10 10 11 13 12 12 15 16 14 12 13 15 16 17 18 17 15 14 14 14 14 14 13 13 12 11 10 9 9 10 10 10 11 11 12 12 12 12 13 14 14 14 14 14 15 15 15 15 16 16
16 15 16 19 20 20 21 20 19 18 16 14 13 15 17 20 19 15 12 11 9 9 10 11 11 9 8 9 10 10 11 10 11 11 9 8 8 9 11 11 10 10 13 12 11 12 14 15 16 17 16 14 13 13 14 14 15 14 14 14 13 12 11 11 11 11 11 12 12 13 13 13 13 14 14 14 14 13 14 14 15 15 15 16 16 16
18 17 18 18 18 19 20 19 18 16 14 14 15 14 17 20 20 18 18 17 13 9 8 10 11 10 10 11 11 12 12 13 12 10 9 10 11 10 10 11 11 12 12 11 10 11 13 15 15 15 15 13 12 13 14 14 15 15 15 15 14 13 13 13 13 13 13 14 14 14 14 14 14 14 14 13 13 13 13 14 14 14 15 16 16 16
17 17 19 21 21 21 23 23 22 20 17 16 16 17 18 19 18 17 19 20 18 15 13 13 13 12 12 13 13 14 14 15 15 14 13 13 14 13 13 14 14 15 14 12 10 10 11 14 14 14 14 13 12 13 14 15 16 16 15 15 14 14 14 14 14 14 14 15 15 15 15 14 14 14 13 12 12 13 13 13 14 15 16 16 16 16
18 17 19 22 23 23 25 27 26 25 24 24 22 21 21 21 19 19 20 20 19 18 18 19 19 18 16 15 15 16 15 15 17 17 16 15 16 16 18 19 17 16 16 15 12 10 11 13 14 13 13 12 13 14 15 15 16 16 16 15 15 15 15 15 15 15 15 14 14 14 14 14 13 12 11 11 12 13 13 13 14 15 16 16 16 16
20 20 22 24 24 24 26 26 23 22 23 23 23 22 23 24 24 23 24 24 22 21 22 25 26 24 22 21 21 21 19 18 18 19 18 16 16 17 20 20 18 17 19 18 14 12 13 13 13 13 13 11 13 15 15 15 17 16 16 15 15 16 16 15 15 15 14 14 14 14 13 12 11 10 11 12 13 13 13 13 14 15 16 16 16 17
20 21 23 23 24 26 29 28 25 24 24 23 23 24 24 25 25 24 25 27 28 27 27 26 25 24 23 24 24 25 25 23 22 21 19 17 17 19 21 21 20 19 20 21 18 15 15 15 13 13 14 12 11 15 16 16 17 17 16 15 15 16 15 15 15 15 14 14 13 13 12 11 10 10 11 12 13 13 12 13 14 15 16 16 16 16
22 25 25 23 25 28 30 28 26 26 27 26 25 24 23 23 25 26 28 29 28 27 25 23 22 23 25 25 25 24 25 26 24 23 21 19 19 21 21 22 23 22 22 23 21 18 16 16 15 15 14 13 12 13 15 17 17 17 17 16 16 16 15 14 15 15 14 14 13 12 11 10 10 11 12 12 12 12 12 13 14 15 16 16 16 16
23 26 25 24 27 29 28 25 23 24 26 25 23 22 21 21 24 26 28 28 28 27 26 24 24 24 25 27 27 26 25 24 22 23 24 23 23 23 22 23 24 25 24 24 24 21 17 17 17 17 16 16 15 13 14 17 18 18 18 17 17 17 15 14 15 15 14 14 13 12 10 10 10 12 12 11 10 11 12 14 14 14 15 16 15 15
25 27 26 26 29 29 26 24 23 25 28 27 25 25 24 24 25 26 25 26 28 29 28 28 28 25 24 25 26 26 26 24 21 21 24 26 25 25 25 25 27 27 25 25 26 25 20 18 19 18 18 18 18 15 14 16 18 20 19 19 19 18 16 15 15 15 14 14 13 12 11 10 11 11 11 11 9 9 11 13 14 14 15 15 15 16
Wind_Direction
214 249 244 250 277 243 220 233 210 185 173 210 223 193 213 255 217 231 258 210 207 215 222 235 227 232 245 238 218 196 186 180 178 172 167 160 153 157 168 207 247 259 268 272 277 284 290 298 300 301 300 299 300 300 300 301 301 302 302 301 300 299 301 301 299 295 292 291 289 289 288 287 287 288 289 289 287 286 287 290 291 287 277 268 260 256
233 273 267 264 277 279 260 248 192 183 178 184 189 190 203 223 218 223 234 213 193 199 215 217 208 230 241 228 215 202 195 197 192 190 194 185 180 184 185 209 241 254 259 263 271 278 284 290 294 298 298 298 299 297 297 297 299 302 302 302 302 303 304 303 301 298 296 294 292 290 288 286 285 285 286 286 286 286 286 287 286 283 277 269 262 255
257 275 278 268 251 284 307 208 213 216 190 178 184 193 205 213 207 200 212 223 221 222 227 219 219 239 232 222 213 205 206 207 202 205 205 198 203 208 205 214 237 256 259 254 259 268 275 283 287 291 293 294 295 295 298 300 301 303 302 303 304 304 305 304 304 304 302 301 298 296 294 290 288 286 285 285 285 285 285 286 284 281 276 268 261 256
220 234 172 347 256 248 286 209 234 232 191 192 195 200 214 213 199 198 217 222 221 229 227 219 239 248 222 214 213 210 210 209 208 209 205 205 210 207 212 222 228 250 262 260 260 266 270 277 281 284 288 291 294 298 301 304 305 304 303 302 304 304 305 307 308 308 307 305 302 300 297 294 291 289 287 285 285 285 284 283 280 276 273 268 261 255
181 212 127 76 322 287 285 220 226 241 210 200 200 212 223 200 198 212 214 208 205 216 222 211 223 229 219 213 212 213 209 207 208 204 200 201 203 203 205 208 216 247 272 278 275 274 275 279 280 282 287 290 296 300 303 305 305 304 305 305 306 307 309 310 309 308 306 304 301 299 296 293 291 289 287 285 283 283 282 281 279 275 272 269 264 256
161 180 193 197 294 325 267 245 246 261 259 191 194 243 231 193 207 208 190 193 203 210 211 208 212 213 218 219 211 210 208 208 213 211 206 201 212 223 223 228 241 259 274 279 278 280 280 282 285 288 293 296 301 304 305 307 308 309 311 311 311 310 310 309 308 307 306 304 302 300 296 293 290 288 286 284 282 281 281 280 278 274 270 266 263 258
143 347 286 260 274 259 254 276 258 253 315 346 206 255 268 198 200 193 185 193 207 218 210 211 223 205 210 220 215 211 211 215 219 218 219 216 223 239 245 252 261 266 270 273 276 279 281 284 289 294 299 305 308 310 312 314 316 317 316 315 313 310 309 308 307 307 306 305 304 302 299 296 292 288 285 283 281 279 278 276 272 268 264 261 258 255
228 326 295 267 263 238 257 290 228 218 308 341 240 250 268 206 190 194 205 206 210 234 227 214 228 224 210 217 216 217 217 218 224 224 225 224 225 237 245 256 267 272 273 272 272 277 282 286 293 298 305 311 315 317 320 321 320 318 316 314 312 311 310 309 309 309 309 308 307 304 302 299 295 292 288 283 278 276 274 272 267 264 260 255 252 252
259 293 287 268 265 261 278 291 183 231 259 259 237 246 243 224 220 211 219 228 226 250 248 215 227 243 239 233 214 213 220 223 225 226 228 227 224 228 227 237 255 265 272 274 275 279 284 289 295 302 310 314 317 320 321 322 320 318 316 314 313 313 313 313 312 312 311 309 307 305 304 303 302 301 298 290 277 269 267 266 262 258 253 248 247 249
230 258 275 248 242 277 286 260 210 243 280 290 237 244 237 231 241 231 231 237 231 248 256 243 252 262 279 270 205 205 223 230 227 225 225 224 225 226 220 223 242 255 269 279 282 280 282 290 297 304 310 313 316 317 319 320 319 317 316 315 315 315 316 315 313 313 313 310 308 307 307 308 310 312 314 311 294 272 264 264 262 254 246 242 244 247
216 265 257 226 239 288 284 264 231 233 279 310 254 240 238 244 254 243 239 240 229 239 264 275 262 248 268 269 215 215 230 234 231 228 222 217 217 224 224 222 241 259 273 284 285 281 280 290 298 303 308 310 312 315 317 319 318 317 316 315 315 316 317 316 315 316 314 311 311 309 310 314 318 323 325 322 308 285 270 269 269 260 247 240 240 241
272 265 246 232 245 269 275 264 234 233 265 272 257 252 245 296 306 268 244 239 241 256 285 284 253 229 230 231 220 226 238 240 239 234 230 226 212 212 225 225 235 257 275 281 284 288 289 294 300 301 305 307 309 313 317 318 316 315 315 314 314 316 318 318 318 318 316 315 314 312 315 320 322 322 313 292 282 278 273 271 273 266 251 241 241 242
268 239 266 272 246 236 244 254 230 239 258 251 251 247 225 342 333 278 255 240 257 282 316 304 278 249 252 238 222 233 244 250 250 238 237 241 224 211 220 223 226 246 254 262 281 304 304 300 301 300 302 305 307 313 316 316 315 314 314 314 315 319 322 321 320 319 319 319 317 317 322 322 311 331 303 275 270 275 277 271 266 260 247 240 240 244
257 236 261 271 250 231 228 243 255 269 264 248 256 265 257 293 300 270 283 244 245 265 302 308 299 278 274 253 236 253 252 244 247 234 230 246 235 211 209 218 224 234 225 238 273 301 301 298 299 298 300 301 305 312 314 314 314 314 314 316 321 326 326 324 324 324 324 325 324 325 327 315 288 356 312 291 292 286 281 272 265 259 250 244 243 244
255 253 262 245 233 222 221 236 262 297 301 265 268 282 256 219 243 279 295 277 265 281 298 307 267 263 269 243 225 248 250 242 244 236 228 239 229 202 204 216 224 233 233 245 272 287 291 294 293 293 295 298 306 312 314 316 316 316 318 322 328 331 330 329 330 331 331 333 334 331 331 341 352 328 301 293 297 290 284 280 274 267 258 253 252 253
265 265 255 223 208 215 234 251 266 280 297 288 276 269 241 211 229 261 282 291 289 291 283 245 233 254 252 233 243 252 255 258 255 249 221 219 212 199 207 215 217 229 241 256 271 277 286 290 288 291 295 300 308 313 316 319 319 319 324 330 333 334 335 336 337 340 340 340 341 335 336 348 311 284 279 277 282 280 275 279 281 272 262 256 253 256
285 294 242 223 242 246 248 268 267 252 270 310 297 268 270 263 238 254 277 277 267 274 274 253 248 249 232 239 263 258 247 246 239 229 217 217 209 197 207 215 214 225 242 259 269 276 284 284 286 292 298 304 311 316 320 323 322 323 328 332 336 338 340 342 344 346 347 347 348 340 330 324 273 257 263 269 276 273 263 270 279 273 266 261 257 259
308 294 265 254 267 256 247 264 261 246 255 276 282 286 298 275 237 256 285 278 259 267 279 277 282 277 247 244 252 243 230 224 229 224 220 229 217 201 213 219 210 226 250 259 259 273 283 285 290 294 300 307 313 317 323 325 325 326 331 336 339 341 344 347 349 351 353 354 354 350 338 319 269 249 266 268 266 263 255 258 268 269 270 269 267 270
324 282 268 267 263 249 246 264 265 255 246 247 258 279 296 275 254 264 280 281 292 293 288 301 306 309 44 71 165 217 216 225 237 225 217 231 225 213 219 214 206 231 257 250 236 264 281 285 290 294 302 310 315 322 327 328 329 329 334 339 341 344 347 350 353 354 356 357 358 358 354 339 306 267 264 264 265 260 247 247 256 263 267 267 270 276
314 289 283 272 251 248 253 255 263 262 237 237 262 274 270 259 258 267 269 271 278 284 292 304 307 342 59 69 193 189 212 243 232 211 214 228 222 218 220 214 216 233 249 242 234 259 282 286 291 296 303 311 317 324 329 331 332 331 334 338 342 346 347 349 354 357 357 357 356 357 358 354 343 314 275 258 260 257 247 248 254 260 264 265 269 274
288 276 275 269 244 252 256 244 254 269 248 252 268 270 267 264 272 276 269 265 266 273 293 302 304 342 20 32 144 104 31 308 230 204 217 235 230 228 227 223 227 230 238 247 248 260 280 289 295 297 302 314 320 325 332 335 333 330 331 333 340 345 346 348 353 358 360 356 352 352 351 353 356 348 329 288 258 249 252 259 259 261 266 268 270 274
249 279 289 285 268 257 260 254 256 264 276 285 271 269 291 302 304 290 267 271 288 297 313 312 309 335 5 103 121 103 72 25 253 219 223 239 242 240 234 228 228 227 234 249 255 261 277 289 298 301 307 317 321 325 333 335 330 327 327 328 334 342 345 346 349 354 359 357 350 349 346 347 352 348 344 337 296 259 258 266 264 263 268 268 268 274
248 269 293 289 277 265 262 265 266 258 261 271 260 264 291 296 285 284 284 310 318 308 304 299 294 318 98 141 172 217 266 225 225 230 231 239 243 241 239 236 230 226 234 248 258 265 276 287 296 305 310 315 319 325 333 337 331 326 325 323 327 337 341 341 343 346 354 358 353 345 341 343 344 339 338 341 330 307 281 272 268 264 269 271 268 274
254 260 280 283 279 270 261 255 251 243 248 265 261 261 270 270 272 278 287 308 309 292 291 291 285 255 158 183 270 278 278 258 241 242 237 237 242 237 238 241 231 227 238 250 260 269 277 285 294 304 306 308 319 325 330 335 330 324 322 320 320 329 335 335 337 338 343 353 355 346 337 335 336 335 336 340 340 336 330 311 288 273 273 276 274 283
263 274 280 283 285 267 242 229 227 225 248 284 278 269 263 262 267 270 276 289 285 277 279 278 283 280 192 258 302 288 263 282 284 261 233 231 237 225 231 242 231 227 241 250 259 270 276 281 293 302 295 296 313 321 325 329 328 324 321 318 314 320 327 329 330 331 333 342 349 349 341 329 325 326 330 335 342 348 353 342 322 305 292 287 286 293
254 284 288 284 292 279 270 315 300 289 303 302 292 289 278 267 262 265 273 274 269 273 274 266 274 294 285 279 287 256 248 259 262 260 246 240 232 217 223 231 222 227 243 250 257 266 269 273 285 291 288 296 310 317 321 325 325 324 320 315 311 312 318 321 322 323 326 330 336 343 348 338 319 313 319 328 333 341 349 346 337 329 315 309 312 314
242 260 267 268 278 284 296 316 315 297 297 296 290 287 281 272 264 265 266 262 267 282 279 269 276 289 281 265 256 260 270 266 256 254 243 231 232 228 225 221 220 234 248 249 250 252 254 261 264 267 283 300 309 314 319 320 320 321 319 313 307 307 310 311 313 316 319 323 325 331 343 346 335 318 310 313 319 327 337 338 336 332 324 320 321 322
244 255 259 263 269 273 282 292 293 289 288 286 283 280 273 270 271 268 261 258 267 278 274 271 280 285 280 271 273 281 282 273 266 256 242 231 230 234 232 229 230 239 247 250 250 241 235 245 249 254 273 294 303 312 319 318 318 320 316 309 304 304 303 303 307 311 315 319 319 321 332 340 342 339 325 314 311 315 322 326 325 325 325 325 324 325
251 259 262 264 268 271 276 279 281 284 283 278 277 275 270 269 270 269 266 264 265 264 266 273 279 278 278 279 280 282 280 276 274 266 252 238 229 227 232 237 233 231 244 255 256 246 240 245 253 258 267 287 302 313 317 316 317 318 313 306 301 299 298 298 301 307 313 315 314 316 321 325 333 339 339 334 326 322 322 322 321 320 321 324 324 326
256 262 270 272 275 277 276 276 277 278 277 273 269 267 267 269 268 267 266 265 264 263 265 272 276 274 275 278 279 279 278 276 272 262 248 238 235 230 227 234 235 235 246 255 255 257 261 260 263 268 271 284 304 314 317 317 317 317 313 305 297 295 293 292 296 301 307 311 314 318 319 318 319 324 329 333 332 330 328 325 323 323 322 324 325 325
257 261 272 279 280 279 276 276 274 272 271 269 267 265 267 270 268 265 264 263 263 264 267 271 273 273 275 279 281 280 276 268 256 248 244 242 242 235 227 233 239 240 243 248 251 255 257 260 271 282 285 292 310 315 315 316 315 314 311 303 295 291 286 286 291 295 300 308 317 324 324 322 321 322 325 330 330 328 327 326 327 329 330 332 333 332
260 267 273 277 279 277 276 276 274 274 274 271 270 270 270 272 270 265 262 261 260 262 267 269 269 272 278 281 279 278 271 256 243 243 248 245 242 239 234 234 235 236 240 249 252 247 245 256 273 282 283 293 313 315 313 314 312 311 307 299 291 285 281 282 284 287 295 306 318 327 330 331 333 337 339 342 344 344 343 344 345 347 348 348 349 348
260 268 271 278 282 279 278 280 281 282 276 269 269 269 268 271 274 271 264 259 258 260 263 265 266 270 276 276 273 271 263 250 247 253 253 244 237 238 240 241 238 234 232 239 247 245 247 259 271 274 278 291 309 311 311 312 310 308 303 295 287 279 275 276 276 280 290 302 314 326 330 332 338 346 352 356 360 360 359 359 358 358 358 356 357 356
257 260 264 275 282 281 283 290 290 277 261 265 275 276 269 267 274 279 273 264 260 259 259 263 268 271 270 267 266 267 263 257 256 256 250 242 237 234 237 241 241 235 226 225 236 244 251 260 266 270 277 293 305 306 309 309 306 304 297 289 280 273 269 268 268 272 280 291 306 311 316 334 347 360 7 7 5 2 358 357 355 353 352 351 353 353
258 261 265 269 272 276 284 292 291 271 260 270 278 277 275 274 274 278 280 273 266 261 260 264 266 265 264 265 267 267 265 264 264 259 251 244 240 236 232 230 233 231 222 223 232 238 246 255 261 269 281 295 300 302 304 304 300 296 289 281 271 265 262 258 255 259 269 275 277 274 281 29 15 8 4 356 353 351 349 348 346 345 343 343 345 347
254 258 263 264 267 273 278 278 270 270 278 282 280 275 273 277 280 282 284 282 273 265 264 267 267 264 265 266 266 266 265 261 260 259 254 246 242 241 237 232 233 228 219 229 235 234 242 253 260 268 282 292 295 297 300 298 292 287 280 270 261 256 251 246 245 249 256 250 232 211 158 61 1 352 347 342 343 343 343 343 342 340 339 339 340 340
247 253 258 261 262 266 271 272 271 277 282 281 279 271 261 264 273 275 278 280 273 259 258 263 265 266 264 261 263 264 258 250 253 261 263 255 246 242 238 235 234 223 213 225 231 235 248 260 262 266 277 286 288 293 296 291 283 278 271 259 251 247 243 241 242 243 241 228 210 197 195 330 338 339 333 332 335 335 338 340 339 338 337 336 336 335
243 247 250 255 259 261 268 273 276 278 277 276 281 277 270 273 275 268 275 284 282 262 250 250 255 263 264 260 258 253 243 243 255 268 268 256 248 247 242 237 233 218 215 228 237 246 258 266 265 266 274 280 283 289 290 283 275 269 261 251 244 240 241 241 239 238 233 221 213 221 268 311 322 325 322 321 323 328 334 336 334 333 332 331 332 333
243 248 248 251 257 260 262 266 268 268 270 278 294 292 283 285 282 268 281 295 298 263 242 238 242 257 261 248 242 241 244 253 262 256 242 234 245 258 259 234 223 216 222 241 258 268 270 269 269 271 274 276 281 285 281 271 266 260 252 245 240 238 241 241 237 236 233 227 231 250 280 300 308 311 311 311 316 323 328 329 329 329 329 330 331 331
241 245 243 244 249 254 259 263 265 266 268 273 284 288 285 289 286 272 280 303 3 169 206 216 232 251 239 231 240 243 245 251 253 253 250 242 252 268 267 243 241 242 244 257 273 284 279 274 274 276 276 279 283 281 270 261 257 253 247 241 239 239 241 241 237 235 235 238 249 265 280 292 299 301 302 305 311 318 322 324 325 326 327 329 331 332
240 240 238 240 245 249 251 256 261 266 268 269 271 274 273 271 267 251 250 265 178 193 208 197 199 240 237 230 239 252 256 255 251 260 271 273 273 274 263 253 259 261 260 269 284 296 291 283 282 282 282 284 282 270 259 254 251 247 243 239 238 238 239 239 237 237 240 247 258 270 280 287 291 294 297 302 309 314 318 320 322 325 327 329 331 333
239 237 233 237 244 247 250 256 263 268 271 269 265 263 256 250 248 246 255 270 271 254 241 221 210 225 238 238 235 232 250 270 272 268 273 278 271 256 246 251 261 262 263 277 296 307 300 294 291 289 288 287 277 259 250 249 246 243 241 239 237 237 237 238 238 240 247 255 263 272 278 282 286 290 295 301 308 312 316 320 322 325 328 329 331 332
247 238 233 235 239 244 249 253 257 263 273 277 269 257 248 248 252 255 259 271 281 273 259 246 236 232 238 253 252 237 234 253 271 275 272 260 243 231 234 242 244 250 267 285 300 304 305 303 296 291 291 287 269 249 245 246 243 242 240 237 236 235 236 239 243 248 255 261 267 272 276 279 284 289 294 301 307 311 316 319 322 325 327 329 330 330
256 248 247 246 241 239 241 244 248 258 274 286 285 271 254 253 261 264 259 261 266 260 247 247 249 249 254 262 268 262 247 241 248 257 258 253 250 245 240 232 223 233 259 282 294 299 307 310 303 294 291 285 263 245 244 244 241 241 240 237 236 235 236 241 248 254 261 265 268 272 275 278 284 289 294 301 305 310 315 318 321 324 327 329 329 330
257 252 255 256 250 245 246 249 252 256 258 261 270 274 266 256 255 262 264 263 259 254 252 249 244 249 260 263 265 267 263 256 254 251 246 247 251 253 250 240 230 233 248 265 282 292 303 314 314 304 292 280 261 246 243 243 243 242 241 239 237 237 239 246 252 257 262 266 269 272 276 279 284 288 294 300 306 312 316 319 323 326 328 329 331 333
261 261 262 262 261 260 260 258 255 255 252 247 249 261 270 267 258 255 261 263 257 253 259 261 256 255 258 258 258 259 259 260 263 258 246 240 241 244 247 243 237 234 239 252 270 282 289 305 318 315 300 280 259 247 244 244 244 243 242 241 239 240 244 249 256 261 264 267 271 274 277 281 285 289 295 302 309 314 317 321 326 328 329 331 333 335
267 264 261 261 263 264 265 265 264 264 265 263 259 260 268 274 272 267 265 264 260 257 260 263 264 262 258 255 256 258 256 254 256 257 254 247 240 240 243 243 239 234 237 249 264 271 274 289 309 317 311 290 260 248 245 245 245 244 243 243 242 244 249 253 258 263 266 269 272 275 278 281 283 288 297 305 310 313 316 322 327 329 330 332 334 336
270 268 263 261 261 262 264 268 270 269 268 268 266 265 267 271 273 272 269 267 265 263 263 264 264 263 263 261 260 260 259 255 253 256 258 255 249 247 245 244 244 241 239 247 258 261 265 277 294 307 314 307 274 253 247 246 246 244 243 244 245 247 251 255 259 263 266 269 272 274 276 279 282 289 298 303 307 309 314 322 327 329 331 333 335 337
270 271 270 269 268 267 267 270 272 272 271 270 269 270 271 272 271 269 266 266 266 263 260 260 258 257 261 266 264 260 258 257 254 254 253 249 248 250 246 243 245 245 243 248 256 256 256 266 280 291 303 310 299 271 254 248 247 245 243 243 245 248 252 255 259 262 265 269 271 271 271 274 282 292 298 301 303 307 314 322 327 330 332 334 335 335
264 266 268 269 268 267 268 269 269 271 273 274 273 270 265 264 266 267 265 266 266 262 258 258 256 252 255 262 266 265 261 257 254 252 249 246 246 250 249 245 245 246 245 247 253 255 251 256 269 280 288 296 303 295 271 254 248 247 245 243 245 249 252 254 258 261 264 268 269 267 266 272 283 293 298 299 302 307 314 321 327 331 334 335 335 334
257 261 262 262 263 266 268 268 268 270 272 272 271 269 264 263 266 268 266 264 264 263 261 263 262 257 253 254 257 259 260 258 257 256 253 250 248 249 248 245 244 248 249 246 249 254 255 253 259 270 280 286 292 297 289 269 253 247 247 246 247 249 252 254 257 260 264 266 266 262 260 270 284 292 297 299 302 308 314 320 327 332 335 336 337 336
Height
3135 3135 3135 3135 3135 3134 3134 3134 3136 3137 3139 3139 3140 3142 3144 3144 3143 3143 3143 3143 3143 3143 3144 3143 3143 3144 3144 3144 3145 3146 3147 3148 3150 3151 3151 3152 3152 3153 3153 3153 3152 3152 3152 3152 3152 3153 3154 3154 3154 3154 3155 3155 3155 3155 3155 3155 3155 3154 3154 3154 3154 3154 3155 3154 3154 3153 3152 3151 3151 3150 3150 3149 3149 3149 3148 3148 3148 3148 3148 3148 3148 3148 3148 3148 3148 3148
3136 3135 3135 3135 3135 3134 3134 3134 3135 3136 3138 3139 3140 3142 3143 3143 3143 3143 3143 3142 3142 3143 3143 3143 3143 3143 3143 3144 3145 3146 3147 3147 3149 3150 3151 3152 3152 3152 3152 3152 3152 3152 3152 3152 3152 3152 3153 3153 3153 3153 3153 3153 3153 3153 3154 3154 3153 3153 3152 3151 3151 3151 3151 3151 3151 3151 3150 3150 3149 3148 3147 3147 3146 3146 3145 3145 3145 3145 3145 3145 3145 3145 3145 3145 3145 3146
3137 3135 3135 3135 3134 3134 3134 3134 3135 3136 3136 3139 3140 3141 3141 3140 3141 3142 3143 3143 3142 3142 3142 3142 3143 3143 3143 3144 3145 3146 3146 3147 3148 3149 3151 3152 3152 3151 3151 3150 3150 3150 3151 3151 3152 3152 3152 3152 3152 3152 3152 3152 3152 3152 3152 3152 3152 3151 3150 3149 3149 3148 3148 3148 3148 3148 3148 3147 3147 3146 3145 3144 3143 3143 3143 3142 3142 3142 3142 3142 3141 3141 3142 3142 3142 3143
3137 3135 3135 3135 3134 3134 3134 3134 3135 3135 3135 3137 3137 3138 3138 3138 3139 3141 3142 3142 3142 3142 3142 3143 3144 3143 3144 3144 3145 3145 3146 3147 3148 3149 3150 3151 3151 3151 3150 3149 3148 3147 3148 3149 3150 3151 3152 3152 3152 3151 3151 3151 3151 3150 3150 3150 3150 3149 3149 3148 3147 3146 3145 3145 3145 3145 3145 3144 3144 3143 3143 3142 3141 3140 3140 3139 3139 3139 3139 3139 3139 3138 3138 3138 3139 3140
3135 3135 3135 3135 3135 3134 3134 3134 3135 3134 3134 3134 3135 3136 3136 3137 3138 3139 3140 3141 3142 3142 3142 3143 3144 3144 3144 3144 3145 3145 3146 3147 3147 3148 3149 3150 3150 3149 3148 3147 3147 3146 3145 3147 3148 3149 3150 3150 3151 3151 3150 3150 3150 3149 3149 3148 3147 3147 3146 3146 3145 3144 3143 3142 3141 3141 3141 3141 3140 3140 3140 3139 3138 3137 3137 3136 3136 3135 3135 3135 3135 3135 3135 3135 3136 3136
3135 3135 3135 3135 3135 3135 3134 3134 3134 3134 3133 3133 3135 3135 3135 3136 3137 3137 3139 3140 3141 3141 3141 3142 3143 3143 3145 3145 3145 3145 3146 3146 3146 3147 3148 3149 3148 3147 3146 3146 3146 3145 3145 3145 3146 3147 3148 3148 3149 3149 3149 3149 3148 3148 3147 3146 3145 3144 3143 3143 3142 3141 3140 3139 3139 3138 3137 3137 3136 3136 3136 3135 3135 3134 3133 3132 3132 3131 3131 3132 3132 3132 3132 3132 3132 3133
3135 3135 3135 3135 3135 3135 3134 3134 3134 3134 3134 3133 3134 3135 3134 3135 3136 3137 3138 3139 3140 3140 3140 3141 3141 3143 3146 3145 3144 3145 3145 3146 3146 3146 3147 3149 3148 3146 3146 3145 3145 3145 3144 3144 3145 3146 3146 3147 3147 3147 3147 3146 3146 3145 3144 3143 3142 3141 3140 3140 3139 3139 3138 3137 3136 3135 3134 3133 3132 3132 3131 3131 3130 3130 3129 3128 3128 3127 3128 3128 3128 3128 3129 3129 3130 3130
3135 3135 3135 3135 3135 3134 3134 3134 3134 3134 3135 3135 3135 3135 3135 3135 3136 3137 3138 3139 3139 3139 3140 3140 3140 3142 3144 3143 3144 3145 3145 3145 3145 3145 3146 3148 3147 3146 3145 3144 3143 3143 3142 3142 3144 3145 3145 3145 3145 3145 3144 3144 3143 3142 3141 3141 3140 3139 3138 3137 3136 3135 3134 3133 3132 3131 3130 3129 3128 3128 3127 3126 3126 3125 3125 3125 3124 3124 3124 3124 3124 3125 3125 3126 3127 3127
3135 3135 3135 3135 3134 3134 3134 3134 3134 3134 3135 3135 3135 3136 3136 3136 3136 3137 3138 3138 3138 3139 3139 3140 3141 3140 3140 3140 3142 3143 3144 3144 3145 3144 3145 3146 3147 3146 3145 3144 3143 3142 3140 3139 3141 3143 3143 3143 3143 3142 3142 3141 3140 3139 3139 3138 3137 3137 3136 3134 3133 3132 3131 3130 3129 3128 3127 3126 3125 3124 3123 3122 3122 3121 3121 3121 3121 3120 3120 3120 3121 3121 3122 3123 3124 3124
3135 3135 3134 3134 3135 3134 3134 3134 3134 3135 3135 3134 3135 3135 3136 3136 3136 3136 3137 3137 3137 3138 3138 3139 3141 3141 3139 3139 3141 3142 3143 3143 3143 3143 3143 3145 3146 3145 3144 3143 3142 3141 3140 3137 3138 3141 3141 3141 3141 3140 3140 3139 3139 3138 3137 3137 3136 3134 3133 3132 3131 3130 3129 3127 3126 3125 3124 3123 3122 3120 3120 3119 3119 3118 3118 3118 3118 3117 3117 3117 3118 3118 3119 3119 3120 3121
3135 3134 3134 3134 3134 3134 3134 3134 3134 3134 3135 3135 3135 3135 3135 3135 3135 3135 3135 3135 3136 3137 3137 3138 3140 3141 3140 3140 3141 3141 3141 3142 3141 3141 3141 3142 3144 3145 3143 3141 3140 3140 3139 3136 3135 3138 3139 3139 3139 3138 3138 3138 3137 3137 3136 3135 3134 3133 3131 3130 3129 3128 3127 3125 3124 3123 3122 3121 3119 3118 3117 3117 3116 3116 3116 3116 3116 3116 3115 3115 3116 3115 3116 3116 3117 3118
3135 3134 3133 3133 3133 3134 3134 3133 3133 3134 3134 3134 3134 3134 3135 3135 3135 3135 3134 3135 3135 3136 3138 3138 3139 3140 3139 3138 3139 3140 3140 3140 3139 3138 3140 3140 3141 3142 3141 3140 3140 3139 3139 3136 3133 3135 3137 3137 3137 3137 3137 3136 3136 3135 3134 3133 3132 3131 3130 3129 3127 3126 3125 3123 3122 3121 3120 3118 3116 3115 3115 3115 3114 3115 3114 3114 3114 3114 3114 3114 3114 3114 3114 3115 3116 3116
3134 3134 3134 3133 3133 3133 3134 3133 3133 3134 3134 3134 3134 3134 3134 3135 3137 3136 3134 3136 3138 3138 3138 3138 3138 3138 3136 3134 3136 3137 3137 3137 3136 3137 3138 3139 3139 3139 3139 3139 3138 3139 3141 3138 3133 3134 3135 3135 3136 3136 3135 3135 3134 3134 3133 3131 3130 3129 3128 3127 3125 3124 3123 3122 3120 3118 3117 3115 3114 3113 3112 3113 3113 3114 3114 3113 3113 3113 3113 3113 3113 3112 3113 3113 3114 3114
3134 3134 3134 3133 3133 3132 3133 3133 3134 3133 3133 3133 3133 3133 3134 3135 3139 3139 3136 3136 3138 3137 3136 3136 3136 3136 3135 3134 3134 3134 3135 3135 3136 3136 3136 3136 3136 3136 3137 3137 3137 3138 3139 3137 3133 3134 3135 3134 3134 3134 3134 3133 3133 3132 3131 3130 3129 3127 3126 3125 3123 3122 3121 3119 3118 3116 3114 3113 3111 3110 3111 3111 3111 3112 3113 3112 3112 3112 3112 3111 3111 3112 3112 3112 3112 3112
3133 3133 3133 3133 3133 3132 3133 3134 3134 3133 3133 3133 3133 3133 3134 3135 3139 3138 3135 3135 3135 3134 3134 3134 3134 3134 3133 3134 3134 3134 3134 3134 3134 3134 3134 3134 3134 3135 3136 3136 3137 3137 3135 3134 3134 3134 3134 3134 3133 3133 3133 3133 3132 3131 3130 3128 3127 3125 3123 3123 3121 3120 3119 3117 3115 3113 3112 3111 3110 3109 3109 3109 3110 3110 3111 3110 3111 3111 3110 3110 3110 3111 3111 3111 3111 3111
3133 3132 3133 3133 3132 3133 3133 3133 3134 3133 3133 3133 3133 3133 3133 3134 3136 3136 3134 3134 3134 3134 3133 3132 3131 3131 3132 3133 3133 3133 3134 3134 3133 3132 3133 3134 3134 3135 3135 3135 3136 3135 3133 3134 3134 3133 3133 3133 3132 3132 3132 3131 3131 3129 3128 3126 3125 3123 3122 3121 3120 3118 3117 3115 3113 3112 3110 3109 3108 3108 3107 3108 3108 3109 3108 3108 3109 3109 3109 3109 3109 3109 3109 3110 3109 3109
3133 3132 3133 3133 3132 3133 3133 3133 3133 3133 3133 3133 3133 3133 3133 3133 3134 3134 3133 3133 3134 3134 3132 3130 3129 3130 3131 3131 3131 3132 3133 3133 3133 3133 3133 3133 3133 3134 3133 3134 3135 3134 3133 3134 3133 3132 3132 3132 3131 3131 3130 3130 3129 3128 3126 3125 3123 3122 3121 3120 3119 3117 3116 3114 3112 3110 3109 3108 3108 3107 3106 3106 3107 3107 3107 3107 3107 3107 3107 3108 3108 3108 3108 3108 3108 3107
3134 3133 3133 3133 3133 3132 3132 3132 3132 3133 3133 3133 3133 3133 3133 3133 3133 3133 3133 3132 3132 3131 3128 3127 3127 3127 3128 3128 3129 3130 3131 3132 3132 3132 3132 3132 3132 3133 3132 3132 3133 3132 3132 3133 3132 3130 3131 3131 3130 3130 3129 3128 3128 3127 3125 3123 3122 3121 3120 3119 3118 3116 3115 3113 3111 3110 3109 3108 3107 3106 3106 3106 3105 3105 3106 3106 3106 3106 3106 3107 3107 3106 3106 3107 3107 3107
3134 3133 3132 3133 3133 3132 3131 3132 3131 3131 3132 3132 3133 3133 3133 3133 3132 3132 3133 3132 3132 3131 3127 3125 3125 3125 3126 3127 3129 3129 3129 3130 3130 3131 3131 3131 3131 3131 3131 3132 3133 3131 3131 3132 3131 3129 3129 3130 3129 3129 3128 3127 3126 3125 3123 3122 3121 3120 3119 3118 3117 3116 3114 3112 3111 3109 3108 3107 3107 3106 3106 3105 3105 3105 3105 3105 3105 3105 3105 3106 3105 3105 3105 3106 3106 3106
3134 3133 3132 3132 3132 3131 3131 3132 3131 3130 3131 3131 3132 3132 3132 3132 3131 3131 3131 3131 3131 3131 3128 3126 3124 3124 3125 3126 3128 3128 3128 3129 3129 3129 3130 3130 3130 3131 3131 3132 3132 3131 3130 3130 3130 3129 3128 3129 3129 3127 3127 3126 3125 3123 3122 3120 3119 3118 3118 3117 3116 3115 3114 3112 3111 3109 3108 3107 3107 3106 3106 3106 3105 3104 3104 3104 3104 3104 3104 3104 3104 3104 3104 3105 3105 3105
3134 3134 3132 3131 3131 3131 3131 3131 3130 3130 3131 3131 3131 3131 3131 3131 3131 3131 3130 3129 3129 3128 3127 3126 3125 3125 3126 3126 3126 3126 3126 3127 3127 3128 3129 3130 3129 3129 3130 3130 3131 3131 3129 3128 3129 3129 3127 3127 3128 3127 3126 3125 3124 3122 3121 3119 3118 3118 3117 3116 3115 3114 3113 3112 3111 3109 3108 3107 3106 3106 3106 3105 3105 3104 3104 3103 3103 3103 3103 3103 3103 3103 3103 3104 3104 3104
3134 3133 3133 3131 3131 3130 3130 3130 3130 3130 3131 3131 3131 3131 3131 3130 3131 3132 3130 3128 3128 3127 3127 3127 3126 3125 3127 3126 3126 3126 3126 3127 3128 3128 3129 3129 3128 3128 3128 3128 3129 3129 3129 3127 3128 3128 3126 3126 3126 3125 3124 3123 3122 3121 3120 3119 3118 3117 3116 3115 3115 3114 3113 3111 3110 3109 3108 3107 3106 3106 3105 3105 3105 3104 3104 3103 3103 3103 3103 3103 3102 3102 3102 3102 3103 3102
3133 3133 3133 3132 3130 3129 3129 3129 3129 3130 3130 3130 3131 3131 3131 3131 3131 3131 3129 3128 3128 3128 3128 3127 3126 3126 3126 3126 3125 3126 3127 3127 3127 3127 3128 3128 3128 3127 3127 3126 3127 3128 3127 3126 3126 3126 3125 3125 3125 3124 3123 3122 3121 3120 3119 3118 3117 3116 3116 3115 3114 3113 3112 3111 3110 3109 3108 3107 3106 3105 3105 3105 3104 3104 3103 3103 3103 3102 3102 3102 3102 3102 3101 3101 3101 3101
3133 3134 3133 3132 3129 3128 3128 3128 3128 3129 3129 3129 3129 3130 3130 3130 3130 3130 3129 3129 3129 3128 3128 3127 3125 3125 3125 3125 3125 3125 3125 3125 3125 3125 3126 3126 3126 3126 3126 3125 3126 3126 3124 3124 3124 3124 3124 3123 3123 3123 3122 3121 3119 3118 3117 3117 3116 3115 3115 3114 3113 3113 3112 3111 3110 3109 3108 3107 3106 3105 3105 3104 3103 3103 3103 3102 3102 3102 3102 3101 3101 3101 3100 3100 3100 3100
3133 3133 3132 3131 3128 3126 3125 3126 3127 3127 3128 3128 3129 3129 3129 3129 3129 3129 3129 3129 3128 3127 3127 3127 3125 3124 3124 3125 3125 3125 3125 3124 3124 3124 3124 3125 3125 3125 3125 3124 3124 3124 3123 3123 3123 3122 3123 3122 3122 3122 3121 3120 3119 3117 3116 3115 3115 3114 3114 3113 3112 3112 3111 3110 3110 3109 3108 3106 3106 3105 3104 3104 3103 3103 3102 3102 3102 3101 3101 3100 3100 3099 3099 3098 3098 3099
3132 3132 3132 3131 3129 3125 3124 3126 3128 3128 3128 3128 3128 3128 3128 3128 3128 3128 3128 3128 3127 3126 3126 3125 3123 3123 3124 3125 3125 3125 3124 3124 3124 3123 3123 3123 3123 3123 3123 3123 3123 3122 3122 3122 3121 3121 3121 3121 3121 3120 3120 3119 3118 3117 3116 3115 3113 3113 3112 3112 3112 3111 3110 3110 3109 3108 3107 3106 3105 3104 3104 3103 3103 3103 3102 3102 3101 3101 3100 3100 3099 3099 3098 3097 3097 3097
3131 3131 3131 3131 3129 3127 3125 3127 3130 3129 3128 3128 3128 3127 3128 3127 3127 3127 3127 3127 3126 3125 3124 3123 3123 3123 3123 3123 3124 3124 3123 3122 3123 3122 3122 3122 3122 3122 3122 3121 3121 3121 3121 3120 3120 3120 3119 3119 3119 3118 3118 3118 3117 3116 3116 3114 3113 3112 3111 3111 3110 3110 3110 3109 3109 3108 3107 3106 3105 3104 3103 3103 3102 3102 3102 3101 3101 3100 3100 3099 3099 3098 3097 3097 3096 3096
3130 3129 3130 3129 3129 3128 3127 3127 3128 3128 3127 3127 3126 3126 3126 3126 3126 3126 3125 3125 3125 3124 3122 3121 3122 3122 3121 3122 3122 3122 3122 3121 3121 3121 3121 3121 3121 3120 3120 3120 3120 3121 3120 3118 3118 3118 3118 3118 3117 3116 3116 3117 3116 3115 3114 3113 3112 3111 3110 3109 3109 3109 3109 3108 3108 3107 3106 3105 3105 3104 3103 3102 3102 3101 3101 3101 3100 3100 3099 3099 3098 3098 3097 3097 3096 3096
3129 3128 3128 3128 3127 3127 3127 3126 3126 3126 3125 3125 3125 3124 3124 3125 3124 3124 3123 3123 3124 3123 3120 3120 3121 3120 3120 3121 3121 3121 3121 3120 3120 3119 3119 3119 3119 3119 3119 3119 3120 3120 3118 3117 3117 3116 3116 3116 3115 3114 3114 3115 3115 3114 3113 3112 3111 3110 3109 3108 3108 3108 3107 3107 3107 3106 3105 3105 3104 3103 3102 3102 3102 3101 3101 3100 3100 3099 3099 3099 3098 3098 3097 3097 3096 3096
3128 3127 3127 3127 3126 3125 3125 3125 3124 3124 3123 3122 3122 3122 3122 3122 3122 3121 3121 3121 3121 3120 3119 3119 3119 3118 3118 3119 3119 3119 3119 3118 3118 3117 3116 3116 3117 3117 3118 3118 3119 3118 3117 3116 3116 3115 3114 3114 3113 3113 3113 3113 3113 3112 3112 3111 3110 3109 3108 3107 3107 3106 3106 3106 3105 3105 3104 3104 3103 3103 3102 3102 3101 3101 3101 3100 3100 3099 3099 3098 3098 3098 3097 3097 3096 3096
3127 3126 3126 3126 3125 3123 3123 3123 3122 3122 3121 3119 3119 3119 3119 3119 3119 3118 3118 3118 3118 3117 3117 3117 3116 3115 3116 3117 3116 3116 3116 3115 3115 3115 3114 3115 3115 3115 3116 3117 3118 3117 3117 3116 3115 3114 3113 3112 3112 3111 3111 3111 3111 3110 3110 3109 3108 3108 3107 3106 3106 3105 3105 3105 3104 3104 3104 3103 3102 3102 3101 3101 3101 3101 3101 3100 3100 3099 3099 3098 3098 3097 3097 3096 3096 3095
3126 3126 3125 3125 3124 3122 3121 3121 3120 3119 3119 3117 3116 3116 3117 3116 3116 3115 3115 3115 3115 3115 3115 3115 3113 3113 3114 3115 3114 3114 3114 3113 3113 3113 3113 3113 3113 3114 3114 3115 3116 3116 3116 3115 3115 3114 3112 3110 3111 3111 3110 3110 3109 3109 3109 3108 3107 3106 3106 3105 3105 3104 3104 3104 3103 3103 3103 3102 3102 3101 3101 3101 3101 3100 3100 3100 3099 3099 3098 3098 3097 3097 3096 3096 3095 3094
3125 3125 3125 3125 3123 3120 3120 3119 3118 3118 3117 3114 3114 3114 3114 3114 3113 3113 3112 3113 3113 3113 3112 3112 3111 3111 3112 3113 3112 3112 3112 3111 3111 3111 3111 3111 3111 3112 3112 3113 3113 3114 3114 3115 3114 3112 3109 3109 3109 3109 3109 3109 3108 3107 3107 3107 3106 3105 3105 3104 3104 3103 3103 3103 3102 3102 3102 3101 3101 3101 3101 3100 3100 3100 3100 3099 3099 3098 3098 3098 3097 3096 3096 3095 3094 3093
3125 3124 3124 3124 3122 3120 3118 3118 3117 3116 3113 3111 3112 3112 3111 3111 3111 3110 3110 3110 3110 3111 3110 3109 3109 3110 3110 3110 3110 3110 3110 3110 3109 3109 3109 3109 3109 3110 3110 3111 3111 3111 3112 3113 3113 3110 3107 3106 3107 3107 3108 3107 3106 3106 3106 3105 3104 3104 3103 3103 3103 3102 3102 3102 3102 3101 3101 3101 3101 3100 3100 3100 3100 3100 3100 3099 3099 3098 3098 3097 3096 3096 3095 3094 3094 3093
3124 3123 3123 3123 3122 3120 3118 3118 3116 3113 3110 3110 3111 3110 3109 3109 3109 3109 3108 3107 3108 3107 3107 3107 3107 3108 3108 3108 3108 3108 3108 3108 3107 3107 3107 3107 3107 3107 3108 3108 3108 3109 3109 3111 3111 3108 3105 3104 3105 3105 3106 3105 3104 3104 3104 3103 3103 3102 3102 3102 3101 3101 3101 3101 3101 3100 3100 3100 3100 3100 3100 3100 3100 3100 3099 3099 3098 3098 3097 3097 3096 3095 3094 3094 3093 3092
3122 3122 3122 3122 3121 3119 3118 3117 3114 3110 3109 3110 3110 3109 3108 3107 3107 3106 3105 3104 3104 3104 3104 3104 3104 3105 3106 3106 3106 3106 3106 3106 3106 3105 3104 3104 3105 3105 3105 3106 3106 3106 3108 3108 3107 3105 3103 3103 3104 3105 3104 3103 3103 3103 3102 3102 3102 3101 3101 3101 3100 3100 3100 3100 3100 3100 3099 3099 3100 3099 3099 3099 3099 3099 3099 3098 3098 3097 3097 3096 3095 3095 3094 3093 3092 3091
3121 3121 3121 3120 3119 3118 3116 3114 3112 3109 3108 3108 3107 3107 3106 3105 3105 3105 3103 3102 3102 3102 3102 3102 3103 3103 3103 3104 3104 3104 3104 3103 3103 3103 3103 3102 3103 3103 3104 3104 3104 3105 3106 3105 3103 3102 3102 3102 3103 3103 3102 3101 3101 3101 3100 3100 3100 3099 3099 3099 3099 3099 3099 3099 3099 3099 3099 3099 3099 3099 3099 3099 3099 3099 3098 3098 3097 3097 3096 3095 3095 3094 3093 3092 3091 3090
3118 3119 3119 3118 3117 3117 3116 3113 3111 3108 3106 3105 3105 3105 3104 3104 3104 3104 3102 3100 3099 3100 3100 3100 3101 3102 3102 3102 3102 3102 3101 3101 3101 3102 3101 3100 3100 3100 3101 3102 3102 3103 3103 3101 3100 3101 3102 3102 3102 3101 3100 3100 3100 3099 3099 3098 3098 3098 3098 3098 3098 3098 3098 3098 3098 3098 3098 3098 3098 3098 3098 3098 3098 3098 3097 3097 3096 3096 3095 3095 3094 3093 3092 3091 3090 3089
3117 3117 3117 3117 3116 3116 3115 3112 3109 3107 3104 3104 3105 3103 3102 3102 3102 3102 3102 3099 3097 3098 3099 3099 3100 3100 3100 3101 3100 3099 3099 3100 3100 3100 3099 3099 3098 3098 3100 3100 3100 3101 3100 3098 3098 3100 3100 3100 3099 3098 3098 3098 3097 3097 3097 3097 3096 3096 3097 3097 3097 3097 3097 3097 3097 3097 3098 3098 3098 3098 3098 3097 3097 3097 3096 3096 3096 3095 3095 3094 3093 3092 3091 3090 3089 3088
3114 3114 3114 3114 3113 3114 3114 3111 3108 3105 3103 3103 3104 3103 3102 3101 3101 3102 3101 3099 3097 3097 3098 3098 3099 3099 3099 3098 3098 3098 3099 3099 3099 3097 3097 3098 3097 3097 3098 3098 3097 3098 3096 3095 3095 3097 3097 3097 3096 3095 3095 3095 3095 3095 3095 3095 3095 3095 3095 3096 3096 3096 3096 3096 3096 3097 3097 3097 3097 3097 3097 3096 3096 3096 3096 3095 3095 3094 3094 3093 3092 3092 3091 3090 3088 3087
3111 3111 3111 3111 3111 3111 3111 3109 3105 3102 3101 3102 3102 3102 3102 3100 3100 3100 3100 3098 3097 3097 3096 3097 3097 3097 3097 3097 3098 3098 3098 3098 3097 3096 3095 3096 3096 3095 3095 3095 3095 3095 3094 3092 3092 3093 3094 3093 3093 3093 3093 3093 3093 3093 3093 3093 3093 3094 3094 3094 3094 3095 3095 3095 3095 3096 3096 3096 3096 3096 3096 3095 3095 3095 3095 3094 3094 3093 3093 3092 3092 3091 3090 3089 3088 3087
3108 3108 3108 3108 3108 3108 3107 3106 3103 3100 3099 3100 3101 3101 3101 3098 3097 3098 3097 3097 3097 3096 3095 3095 3095 3095 3096 3096 3097 3097 3097 3096 3096 3095 3094 3094 3094 3093 3093 3092 3092 3092 3091 3090 3090 3091 3091 3091 3091 3090 3090 3090 3090 3091 3091 3091 3092 3092 3092 3093 3093 3093 3094 3094 3094 3094 3095 3095 3095 3095 3095 3094 3094 3094 3094 3093 3093 3092 3092 3091 3090 3090 3089 3088 3087 3086
3106 3106 3104 3104 3105 3104 3104 3103 3101 3098 3097 3097 3098 3099 3098 3095 3095 3096 3096 3095 3096 3095 3094 3094 3094 3094 3094 3094 3094 3094 3094 3095 3094 3093 3093 3093 3092 3092 3092 3091 3090 3090 3089 3089 3089 3089 3088 3088 3088 3088 3088 3088 3088 3088 3089 3090 3090 3091 3091 3091 3092 3092 3093 3093 3093 3093 3093 3094 3094 3094 3093 3093 3093 3093 3093 3092 3092 3091 3091 3090 3089 3088 3088 3087 3086 3085
3103 3103 3101 3101 3101 3101 3099 3098 3097 3096 3096 3096 3096 3096 3095 3094 3094 3094 3094 3093 3094 3093 3093 3093 3092 3093 3093 3092 3092 3092 3092 3092 3092 3092 3092 3091 3091 3090 3090 3090 3089 3088 3087 3087 3087 3087 3087 3086 3086 3086 3086 3086 3086 3087 3087 3088 3088 3089 3089 3090 3091 3091 3091 3092 3092 3092 3092 3092 3092 3092 3092 3092 3092 3092 3091 3091 3091 3090 3090 3089 3088 3087 3086 3085 3084 3083
3100 3100 3100 3098 3098 3097 3095 3094 3093 3093 3094 3094 3093 3093 3092 3092 3092 3091 3091 3090 3091 3091 3091 3091 3090 3090 3090 3090 3090 3090 3090 3090 3090 3090 3090 3090 3089 3089 3089 3088 3088 3087 3085 3085 3086 3086 3085 3084 3084 3084 3084 3084 3084 3085 3086 3086 3087 3087 3088 3089 3089 3090 3090 3090 3091 3091 3091 3091 3091 3091 3091 3091 3090 3090 3090 3090 3089 3089 3088 3087 3087 3086 3085 3084 3083 3082
3098 3098 3097 3095 3094 3093 3092 3091 3091 3090 3090 3090 3090 3089 3089 3089 3089 3089 3088 3088 3088 3089 3089 3088 3087 3087 3088 3088 3087 3087 3087 3087 3087 3087 3087 3088 3088 3087 3087 3086 3086 3085 3084 3083 3083 3084 3084 3083 3083 3083 3082 3082 3083 3083 3084 3085 3085 3086 3086 3087 3088 3088 3089 3089 3089 3090 3090 3090 3090 3090 3089 3089 3089 3089 3089 3088 3088 3087 3087 3086 3085 3084 3083 3082 3081 3080
3096 3096 3094 3093 3092 3091 3088 3087 3088 3088 3087 3087 3087 3087 3087 3087 3086 3086 3085 3085 3085 3085 3085 3085 3084 3084 3084 3084 3084 3084 3084 3085 3084 3084 3084 3084 3085 3085 3085 3084 3083 3083 3082 3081 3081 3082 3082 3081 3081 3081 3081 3081 3081 3081 3082 3083 3083 3084 3085 3085 3086 3087 3087 3088 3088 3088 3088 3088 3088 3088 3088 3088 3088 3087 3087 3087 3086 3086 3085 3084 3084 3083 3082 3081 3079 3078
3093 3091 3090 3090 3089 3087 3085 3085 3086 3085 3084 3084 3084 3084 3084 3084 3083 3083 3083 3082 3081 3081 3081 3081 3081 3081 3080 3080 3080 3080 3080 3081 3081 3081 3081 3082 3082 3082 3082 3081 3081 3081 3080 3079 3078 3079 3080 3080 3079 3080 3079 3079 3079 3080 3080 3081 3082 3082 3083 3084 3084 3085 3085 3086 3086 3086 3086 3086 3086 3086 3086 3086 3086 3086 3086 3085 3085 3084 3083 3083 3082 3081 3080 3079 3078 3077
3090 3088 3087 3087 3086 3083 3082 3082 3082 3081 3080 3080 3081 3081 3081 3081 3080 3080 3079 3078 3077 3077 3077 3077 3077 3077 3076 3076 3076 3076 3076 3077 3077 3078 3078 3078 3079 3079 3079 3079 3079 3078 3078 3077 3076 3076 3078 3078 3077 3078 3078 3078 3078 3078 3078 3079 3080 3080 3081 3082 3082 3083 3083 3084 3084 3084 3084 3085 3085 3085 3085 3085 3084 3084 3084 3084 3083 3082 3082 3082 3081 3080 3079 3078 3076 3075
3086 3084 3084 3084 3082 3079 3079 3080 3080 3078 3077 3077 3077 3077 3077 3076 3076 3074 3074 3074 3073 3073 3073 3073 3073 3073 3073 3073 3072 3072 3072 3072 3073 3074 3074 3074 3075 3075 3076 3076 3076 3075 3075 3074 3073 3073 3075 3075 3075 3075 3076 3076 3076 3076 3076 3077 3077 3078 3079 3080 3080 3081 3081 3082 3082 3082 3082 3083 3083 3083 3083 3083 3083 3082 3082 3082 3082 3081 3080 3080 3079 3079 3077 3076 3075 3074
3082 3081 3081 3080 3077 3076 3076 3077 3077 3075 3073 3073 3073 3073 3072 3072 3071 3070 3070 3070 3069 3069 3069 3068 3068 3068 3068 3068 3069 3069 3069 3069 3069 3070 3070 3070 3071 3071 3072 3072 3072 3072 3072 3072 3070 3070 3071 3072 3072 3072 3073 3074 3074 3074 3074 3074 3075 3076 3077 3077 3078 3078 3079 3079 3080 3080 3080 3080 3081 3081 3081 3081 3081 3081 3080 3080 3080 3080 3079 3078 3077 3077 3076 3075 3074 3073